Weather History for PHHI - June, 2013

Change the Weather History Date:

Thursday, June 20, 2013

  Actual Average Record
Temperature  
Mean Temperature 72 °F -  
Max Temperature 79 °F 79 °F 84 °F (2000)
Min Temperature 64 °F 66 °F 64 °F (2000)
Cooling Degree Days 6    
Growing Degree Days 22 (Base 50)    
Moisture  
Dew Point 65 °F    
Average Humidity 79    
Maximum Humidity 94    
Minimum Humidity 63    
Precipitation  
Precipitation 0.05 in - - ()
Sea Level Pressure  
Sea Level Pressure 30.03 in    
Wind  
Wind Speed 5 mph (NNE)    
Max Wind Speed 15 mph    
Max Gust Speed -    
Visibility 9 miles    
Events Rain    
Averages and records for this station are not official NWS values.
T = Trace of Precipitation, MM = Missing Value Source: NWS Daily Summary

Daily Weather History Graph

Daily Weather History Graph

Search for Another Location

Airport or City:

Trip Planner

Search our weather history database for the weather conditions in past years. The results will help you decide how hot, cold, wet, or windy it might be!

Date:

Astronomy

Jun. 20, 2013 Rise Set
Actual Time 5:50 AM HST 7:17 PM HST
Civil Twilight 5:25 AM HST 7:42 PM HST
Nautical Twilight 4:55 AM HST 8:11 PM HST
Astronomical Twilight 4:25 AM HST 8:42 PM HST
Moon 4:43 PM HST (6/20) 3:11 AM HST (6/20)
Length of Visible Light 14h 16m
Length of Day
13h 26m
Waxing Gibbous, 90% of the Moon is Illuminated
Jun 20
Waxing Gibbous
Jun 23
Full
Jun 29
Last Quarter
Jul 7
New
Jul 15
First Quarter

Hourly Weather History & Observations

Time (HST) Temp. Dew Point Humidity Pressure Visibility Wind Dir Wind Speed Gust Speed Precip Events Conditions
12:55 AM 66.6 °F 61.9 °F 85% 30.03 in 10.0 mi WNW 4.6 mph - N/A   Partly Cloudy
1:55 AM 66.0 °F 61.3 °F 85% 30.01 in 10.0 mi WNW 5.8 mph - N/A   Clear
2:55 AM 64.9 °F 61.0 °F 87% 29.99 in 10.0 mi WNW 5.8 mph - N/A   Clear
3:55 AM 64.0 °F 60.4 °F 88% 29.99 in 10.0 mi WNW 4.6 mph - N/A   Partly Cloudy
4:55 AM 65.5 °F 61.2 °F 86% 29.98 in 10.0 mi WNW 5.8 mph - N/A   Scattered Clouds
5:55 AM 65.1 °F 61.2 °F 87% 29.99 in 10.0 mi NW 4.6 mph - N/A   Scattered Clouds
6:55 AM 68.2 °F 64.0 °F 87% 30.01 in 10.0 mi WNW 4.6 mph - N/A   Partly Cloudy
7:55 AM 71.1 °F 64.0 °F 78% 30.02 in 10.0 mi Variable 4.6 mph - N/A   Mostly Cloudy
7:56 AM 71.6 °F 64.4 °F 78% 30.02 in 10.0 mi NE 4.6 mph - N/A   Drizzle
8:05 AM 71.6 °F 64.4 °F 78% 30.03 in 10.0 mi NE 4.6 mph - N/A   Overcast
8:20 AM 71.6 °F 64.4 °F 78% 30.03 in 8.0 mi ENE 6.9 mph - N/A   Light Drizzle
8:33 AM 71.6 °F 64.4 °F 78% 30.03 in 10.0 mi Calm Calm - N/A   Mostly Cloudy
8:49 AM 71.6 °F 64.4 °F 78% 30.04 in 10.0 mi Calm Calm - N/A   Overcast
8:52 AM 71.6 °F 66.2 °F 83% 30.04 in 10.0 mi ENE 3.5 mph - N/A   Overcast
8:53 AM 71.6 °F 66.2 °F 83% 30.03 in 9.0 mi East 4.6 mph - N/A   Light Drizzle
8:55 AM 71.8 °F 65.5 °F 80% 30.03 in 9.0 mi ENE 4.6 mph - 0.00 in   Light Drizzle
9:02 AM 71.6 °F 66.2 °F 83% 30.04 in 9.0 mi ENE 3.5 mph - N/A   Overcast
9:55 AM 75.7 °F 64.4 °F 68% 30.03 in 10.0 mi East 9.2 mph - 0.00 in   Mostly Cloudy
10:55 AM 78.3 °F 65.1 °F 64% 30.02 in 10.0 mi ENE 9.2 mph - N/A   Mostly Cloudy
11:55 AM 78.1 °F 65.3 °F 65% 30.03 in 10.0 mi ENE 11.5 mph - N/A   Mostly Cloudy
12:52 PM 77.0 °F 66.2 °F 69% 30.02 in 8.0 mi ENE 11.5 mph - N/A   Light Drizzle
12:55 PM 75.6 °F 66.4 °F 73% 30.02 in 8.0 mi ENE 9.2 mph - 0.00 in   Light Drizzle
12:57 PM 75.2 °F 66.2 °F 73% 30.02 in 8.0 mi ENE 8.1 mph - N/A   Overcast
1:55 PM 79.2 °F 65.5 °F 63% 30.00 in 10.0 mi ENE 9.2 mph - 0.00 in   Mostly Cloudy
2:55 PM 78.3 °F 66.0 °F 66% 30.00 in 10.0 mi East 15.0 mph - N/A   Overcast
3:55 PM 76.6 °F 64.9 °F 67% 30.00 in 10.0 mi ENE 11.5 mph - N/A   Overcast
4:55 PM 77.0 °F 65.1 °F 67% 29.99 in 10.0 mi ENE 11.5 mph - N/A   Overcast
5:55 PM 74.8 °F 63.7 °F 68% 30.01 in 10.0 mi ENE 9.2 mph - N/A   Overcast
6:55 PM 74.3 °F 63.7 °F 69% 30.01 in 10.0 mi Variable 5.8 mph - N/A   Overcast
7:55 PM 72.9 °F 64.2 °F 74% 30.04 in 10.0 mi North 3.5 mph - N/A   Scattered Clouds
8:46 PM 71.6 °F 64.4 °F 78% 30.04 in 10.0 mi WNW 4.6 mph - N/A   Mostly Cloudy
8:49 PM 71.6 °F 64.4 °F 78% 30.04 in 10.0 mi WNW 4.6 mph - N/A   Light Drizzle
8:55 PM 71.4 °F 65.3 °F 81% 30.05 in 10.0 mi Variable 3.5 mph - 0.00 in   Light Drizzle
9:20 PM 71.6 °F 66.2 °F 83% 30.06 in 2.5 mi NNE 4.6 mph - N/A Rain Heavy Rain
9:22 PM 69.8 °F 66.2 °F 88% 30.06 in 3.0 mi NNE 4.6 mph - N/A Rain Heavy Rain
9:45 PM 69.8 °F 66.2 °F 88% 30.06 in 10.0 mi NNE 3.5 mph - N/A   Mostly Cloudy
9:55 PM 69.6 °F 66.6 °F 90% 30.06 in 10.0 mi Calm Calm - 0.05 in   Mostly Cloudy
10:53 PM 69.8 °F 66.2 °F 88% 30.06 in 10.0 mi WNW 3.5 mph - N/A   Light Drizzle
10:55 PM 69.1 °F 66.7 °F 92% 30.06 in 10.0 mi WNW 3.5 mph - 0.00 in   Light Drizzle
11:15 PM 69.8 °F 66.2 °F 88% 30.06 in 10.0 mi WNW 4.6 mph - N/A   Mostly Cloudy
11:49 PM 68.0 °F 66.2 °F 94% 30.05 in 10.0 mi Calm Calm - N/A   Light Drizzle
11:55 PM 68.7 °F 66.4 °F 92% 30.05 in 10.0 mi Variable 3.5 mph - 0.00 in   Light Drizzle
11:58 PM 69.8 °F 66.2 °F 88% 30.05 in 10.0 mi Variable 3.5 mph - N/A   Scattered Clouds